Galliano, LA

12:42 PM CST on November 23, 2017 (GMT -0600)
Galliano

Weather History for KGAO - September, 2012

Change the Weather History Date:

Sunday, September 30, 2012

  Actual Average (KHUM) Record (KHUM)
Temperature  
Mean Temperature 78 °F -  
Max Temperature 86 °F 83 °F 94 °F (1954)
Min Temperature 71 °F 63 °F 44 °F (1967)
Cooling Degree Days 14    
Growing Degree Days 28 (Base 50)    
Moisture  
Dew Point 77 °F    
Average Humidity 100    
Maximum Humidity 100    
Minimum Humidity 89    
Precipitation  
Precipitation 0.63 in - - ()
Sea Level Pressure  
Sea Level Pressure 29.69 in    
Wind  
Wind Speed 10 mph (SSE)    
Max Wind Speed 30 mph    
Max Gust Speed 39 mph    
Visibility 9 miles    
Events Rain , Thunderstorm    
Averages and records for this station are not official NWS values.
T = Trace of Precipitation, MM = Missing Value Source: NWS Daily Summary

Daily Weather History Graph

Daily Weather History Graph

Search for Another Location

Airport or City:

Trip Planner

Search our weather history database for the weather conditions in past years. The results will help you decide how hot, cold, wet, or windy it might be!

Date:

Astronomy

Sep. 30, 2012 Rise Set
Actual Time 6:54 AM CDT 6:47 PM CDT
Civil Twilight 6:30 AM CDT 7:10 PM CDT
Nautical Twilight 6:02 AM CDT 7:38 PM CDT
Astronomical Twilight 5:34 AM CDT 8:06 PM CDT
Moon 6:59 PM CDT (9/30) 7:18 AM CDT (9/30)
Length of Visible Light 12h 40m
Length of Day
11h 53m
Full, 100% of the Moon is Illuminated
Sep 30
Full
Oct 8
Last Quarter
Oct 15
New
Oct 21
First Quarter
Oct 29
Full

Hourly Weather History & Observations

Time (CDT) Temp. Heat Index Dew Point Humidity Pressure Visibility Wind Dir Wind Speed Gust Speed Precip Events Conditions
12:15 AM 71.6 °F - 71.6 °F 100% 29.84 in 10.0 mi SE 4.6 mph - N/A   Clear
12:55 AM 71.6 °F - 71.6 °F 100% 29.82 in 10.0 mi ESE 3.5 mph - N/A   Clear
1:15 AM 71.6 °F - 71.6 °F 100% 29.82 in 10.0 mi ESE 5.8 mph - N/A   Clear
1:35 AM 71.6 °F - 71.6 °F 100% 29.82 in 10.0 mi ESE 4.6 mph - N/A   Clear
1:55 AM 73.4 °F - 73.4 °F 100% 29.81 in 10.0 mi ESE 5.8 mph - N/A   Clear
2:15 AM 73.4 °F - 73.4 °F 100% 29.81 in 10.0 mi ESE 5.8 mph - N/A   Clear
2:35 AM 73.4 °F - 73.4 °F 100% 29.81 in 10.0 mi SE 6.9 mph - N/A   Light Drizzle
2:55 AM 73.4 °F - 73.4 °F 100% 29.80 in 10.0 mi SE 4.6 mph - N/A Thunderstorm Unknown
3:15 AM 73.4 °F - 73.4 °F 100% 29.79 in 10.0 mi SE 6.9 mph - N/A Rain Light Rain
3:35 AM 73.4 °F - 73.4 °F 100% 29.78 in 10.0 mi ESE 6.9 mph - N/A   Light Drizzle
3:55 AM 73.4 °F - 73.4 °F 100% 29.76 in 10.0 mi ESE 4.6 mph - N/A   Clear
4:15 AM 73.4 °F - 73.4 °F 100% 29.76 in 10.0 mi ESE 4.6 mph - N/A Thunderstorm Clear
4:35 AM 73.4 °F - 73.4 °F 100% 29.76 in 10.0 mi SE 5.8 mph - N/A   Clear
4:55 AM 73.4 °F - 73.4 °F 100% 29.75 in 10.0 mi SE 5.8 mph - N/A Thunderstorm Clear
5:15 AM 73.4 °F - 73.4 °F 100% 29.76 in 10.0 mi SSE 8.1 mph - N/A   Scattered Clouds
5:35 AM 73.4 °F - 73.4 °F 100% 29.75 in 10.0 mi SSE 9.2 mph - 0.01 in Rain , Thunderstorm Light Thunderstorms and Rain
5:55 AM 73.4 °F - 73.4 °F 100% 29.76 in 10.0 mi SSE 6.9 mph - 0.01 in Rain Light Rain
6:15 AM 71.6 °F - 71.6 °F 100% 29.76 in 3.0 mi South 8.1 mph - 0.24 in Rain , Thunderstorm Heavy Thunderstorms and Rain
6:35 AM 71.6 °F - 71.6 °F 100% 29.76 in 10.0 mi SSE 5.8 mph - 0.24 in   Scattered Clouds
6:55 AM 71.6 °F - 71.6 °F 100% 29.76 in 10.0 mi Calm Calm - 0.24 in   Light Drizzle
7:15 AM 71.6 °F - 71.6 °F 100% 29.76 in 10.0 mi ESE 3.5 mph - N/A Rain Light Rain
7:35 AM 71.6 °F - 71.6 °F 100% 29.76 in 10.0 mi SE 6.9 mph - N/A Rain Rain
7:55 AM 71.6 °F - 71.6 °F 100% 29.76 in 10.0 mi SE 11.5 mph 17.3 mph N/A   Scattered Clouds
8:15 AM 71.6 °F - 71.6 °F 100% 29.76 in 10.0 mi SE 13.8 mph - N/A Thunderstorm Scattered Clouds
8:35 AM 71.6 °F - 71.6 °F 100% 29.76 in 10.0 mi SE 17.3 mph - N/A   Scattered Clouds
8:55 AM 73.4 °F - 73.4 °F 100% 29.76 in 10.0 mi SE 17.3 mph 24.2 mph N/A   Scattered Clouds
9:15 AM 75.2 °F - 75.2 °F 100% 29.76 in 10.0 mi ESE 15.0 mph 25.3 mph N/A   Scattered Clouds
9:35 AM 77.0 °F - 77.0 °F 100% 29.76 in 10.0 mi SE 15.0 mph 19.6 mph N/A   Clear
9:55 AM 78.8 °F - 78.8 °F 100% 29.74 in 10.0 mi SE 15.0 mph 21.9 mph N/A   Scattered Clouds
10:15 AM 77.0 °F - 77.0 °F 100% 29.76 in 10.0 mi SSE 29.9 mph 39.1 mph 0.06 in Thunderstorm Thunderstorm
10:35 AM 71.6 °F - 71.6 °F 100% 29.74 in 7.0 mi ESE 9.2 mph 17.3 mph 0.10 in Rain Light Rain
10:55 AM 73.4 °F - 73.4 °F 100% 29.73 in 10.0 mi ESE 6.9 mph - 0.10 in Thunderstorm Clear
11:35 AM 77.0 °F - 77.0 °F 100% 29.73 in 7.0 mi SSE 8.1 mph - N/A   Scattered Clouds
12:15 PM 84.2 °F 103.5 °F 84.2 °F 100% 29.71 in 10.0 mi SSE 16.1 mph 20.7 mph N/A   Scattered Clouds
12:35 PM 82.4 °F 96.1 °F 82.4 °F 100% 29.69 in 7.0 mi SSE 15.0 mph 23.0 mph N/A Rain Rain
12:55 PM 84.2 °F 103.5 °F 84.2 °F 100% 29.68 in 10.0 mi SSE 23.0 mph 28.8 mph N/A   Scattered Clouds
1:15 PM 86.0 °F 111.5 °F 86.0 °F 100% 29.67 in 10.0 mi SSE 23.0 mph 33.4 mph N/A   Clear
1:35 PM 86.0 °F 107.7 °F 84.2 °F 94% 29.66 in 10.0 mi SSE 20.7 mph 32.2 mph N/A   Scattered Clouds
1:55 PM 86.0 °F 104.7 °F 82.4 °F 89% 29.66 in 10.0 mi SSE 23.0 mph 27.6 mph N/A Thunderstorm Scattered Clouds
2:15 PM 82.4 °F 96.1 °F 82.4 °F 100% 29.64 in 10.0 mi SSE 19.6 mph 25.3 mph N/A Thunderstorm Clear
2:35 PM 82.4 °F 96.1 °F 82.4 °F 100% 29.63 in 10.0 mi SSE 20.7 mph 28.8 mph N/A   Scattered Clouds
3:15 PM 82.4 °F 96.1 °F 82.4 °F 100% 29.62 in 10.0 mi South 16.1 mph 25.3 mph N/A Thunderstorm Unknown
3:35 PM 80.6 °F 89.3 °F 80.6 °F 100% 29.61 in 3.0 mi SSW 19.6 mph 32.2 mph 0.07 in Rain , Thunderstorm Heavy Thunderstorms and Rain
3:55 PM 77.0 °F - 77.0 °F 100% 29.61 in 4.0 mi South 16.1 mph 23.0 mph 0.25 in Thunderstorm Mostly Cloudy
4:15 PM 78.8 °F - 78.8 °F 100% 29.60 in 7.0 mi South 9.2 mph 19.6 mph N/A Thunderstorm Thunderstorm
4:35 PM 80.6 °F 89.3 °F 80.6 °F 100% 29.60 in 10.0 mi South 12.7 mph 21.9 mph N/A   Scattered Clouds
4:55 PM 80.6 °F 89.3 °F 80.6 °F 100% 29.60 in 7.0 mi South 17.3 mph 28.8 mph N/A Rain , Thunderstorm Thunderstorms and Rain
5:15 PM 78.8 °F - 78.8 °F 100% 29.60 in 5.0 mi South 19.6 mph 25.3 mph 0.01 in Rain Heavy Rain
5:35 PM 77.0 °F - 77.0 °F 100% 29.59 in 10.0 mi South 20.7 mph 29.9 mph 0.02 in   Scattered Clouds
5:55 PM 77.0 °F - 77.0 °F 100% 29.59 in 5.0 mi South 16.1 mph 24.2 mph 0.02 in Rain Rain
6:15 PM 77.0 °F - 77.0 °F 100% 29.58 in 5.0 mi South 9.2 mph - N/A Thunderstorm Overcast
6:35 PM 77.0 °F - 77.0 °F 100% 29.58 in 5.0 mi SSW 11.5 mph 21.9 mph N/A Rain , Thunderstorm Light Thunderstorms and Rain
7:15 PM 78.8 °F - 78.8 °F 100% 29.58 in 10.0 mi SSW 16.1 mph 25.3 mph N/A   Scattered Clouds
7:35 PM 78.8 °F - 78.8 °F 100% 29.59 in 10.0 mi SSW 11.5 mph - N/A   Mostly Cloudy
8:15 PM 78.8 °F - 78.8 °F 100% 29.59 in 10.0 mi SSW 11.5 mph 20.7 mph N/A   Clear
8:35 PM 78.8 °F - 78.8 °F 100% 29.59 in 10.0 mi SSW 13.8 mph 21.9 mph N/A   Clear
9:15 PM 78.8 °F - 78.8 °F 100% 29.59 in 10.0 mi South 10.4 mph - N/A   Scattered Clouds
9:35 PM 78.8 °F - 78.8 °F 100% 29.59 in 10.0 mi SSW 11.5 mph 20.7 mph N/A   Clear
9:55 PM 78.8 °F - 78.8 °F 100% 29.60 in 10.0 mi South 9.2 mph 17.3 mph 0.01 in   Scattered Clouds
10:15 PM 78.8 °F - 78.8 °F 100% 29.59 in 10.0 mi South 15.0 mph 20.7 mph N/A   Mostly Cloudy
10:35 PM 78.8 °F - 78.8 °F 100% 29.58 in 10.0 mi South 15.0 mph 23.0 mph N/A   Mostly Cloudy
10:55 PM 78.8 °F - 78.8 °F 100% 29.58 in 10.0 mi SSW 13.8 mph 19.6 mph N/A Rain Light Rain
11:15 PM 78.8 °F - 78.8 °F 100% 29.57 in 10.0 mi SSW 16.1 mph 23.0 mph N/A   Mostly Cloudy
11:35 PM 78.8 °F - 78.8 °F 100% 29.58 in 10.0 mi SSW 12.7 mph 21.9 mph N/A   Scattered Clouds
11:55 PM 77.0 °F - 77.0 °F 100% 29.58 in 10.0 mi SSW 12.7 mph 19.6 mph N/A   Mostly Cloudy